Wind_Speed
37 35 35 36 35 34 28 28 31 31 32 31 29 26 23 20 17 20 14 16 14 9 8 9 9 5 4 2 3 4 4 4 5 6 7 9 10 10 9 6 5 5 4 4 3 4 5 5 5
42 40 39 40 42 38 28 27 31 38 37 34 33 31 30 29 25 23 20 15 15 14 10 8 9 9 8 5 4 5 6 6 5 6 6 8 9 10 10 8 7 7 6 5 5 5 6 6 5
44 45 46 47 46 43 29 29 32 39 41 41 38 36 35 31 29 27 23 21 17 15 13 12 10 10 10 7 4 4 5 7 5 6 8 8 9 10 10 10 10 9 8 5 6 7 8 8 8
50 49 52 52 49 39 34 36 34 36 38 40 40 40 40 38 31 29 30 24 21 20 18 18 18 15 11 12 12 6 3 5 8 7 8 9 10 10 11 12 12 11 10 7 7 8 9 9 11
50 53 55 55 50 42 40 41 38 39 41 39 39 39 38 39 36 33 32 33 31 30 26 21 17 12 8 8 8 10 10 11 10 10 10 10 10 10 10 12 13 11 10 8 8 10 12 12 12
49 52 55 54 51 45 45 43 45 42 42 44 40 39 38 37 37 36 33 32 30 28 25 20 16 12 8 10 11 8 11 12 11 13 14 14 13 11 10 11 11 11 10 9 12 13 14 15 17
51 52 51 52 52 50 49 49 49 46 47 47 45 42 44 41 39 39 35 33 30 28 26 23 21 19 15 16 17 14 11 11 12 13 15 17 17 16 14 13 12 13 14 14 15 17 19 20 21
47 54 55 54 49 46 52 52 51 51 50 50 54 46 43 46 42 41 39 36 34 30 27 26 26 23 18 22 23 19 20 15 15 16 17 18 17 18 18 18 18 18 20 21 21 21 22 22 23
45 50 56 54 48 45 49 47 53 54 56 53 53 51 56 44 45 44 42 39 38 33 30 29 29 28 27 26 24 22 17 18 20 21 21 22 21 22 21 22 23 25 24 24 24 24 26 27 27
43 49 45 44 43 40 47 49 52 53 58 61 57 56 51 50 49 48 46 43 40 37 35 34 32 30 28 25 25 25 26 28 24 22 21 17 19 23 27 27 27 27 26 28 28 29 31 30 31
36 36 41 45 39 40 47 49 55 53 56 61 61 58 55 54 51 51 49 46 43 41 39 38 36 33 29 27 26 27 30 28 24 24 22 25 28 31 31 31 31 32 32 33 35 36 36 35 37
41 39 38 38 39 43 45 47 54 57 54 58 63 65 59 55 53 52 50 48 45 42 42 42 40 35 32 31 28 30 32 32 31 32 34 36 37 37 36 35 35 35 36 39 39 41 42 42 42
45 44 41 38 34 40 48 48 51 58 56 59 59 63 62 58 55 53 52 50 47 46 45 45 43 39 34 33 32 32 36 35 36 36 35 36 39 40 39 39 39 39 40 42 42 45 45 47 47
52 50 48 43 40 39 40 48 51 56 57 59 60 60 59 58 56 56 54 51 50 49 47 45 42 39 36 32 32 32 36 31 37 35 35 37 37 39 40 41 41 43 42 43 44 43 47 48 52
59 56 53 50 48 44 40 42 47 54 56 55 54 56 59 55 52 51 53 54 52 51 49 47 43 41 38 36 34 37 39 41 36 39 38 40 39 40 39 41 43 43 43 42 41 44 42 46 51
59 62 56 54 53 50 48 40 45 48 55 53 53 49 53 53 46 43 49 52 52 53 52 50 47 43 41 41 41 39 38 40 36 38 40 41 41 40 41 42 43 40 39 40 40 43 44 44 43
60 58 58 58 57 54 52 47 45 45 47 50 51 51 46 47 46 41 39 43 47 48 48 48 48 45 41 41 37 37 40 35 37 40 41 40 41 41 42 39 40 40 39 40 40 41 41 41 43
62 64 62 62 60 57 56 53 44 44 41 43 43 48 48 46 42 38 36 37 42 46 47 47 47 45 39 37 34 36 39 40 39 42 41 42 42 42 42 43 44 42 41 42 42 40 41 41 41
69 65 66 65 63 60 52 54 48 46 40 39 40 42 45 47 44 42 39 36 36 38 41 41 40 40 39 38 39 39 38 39 42 41 40 42 43 44 44 43 45 45 42 42 43 39 42 41 43
71 70 68 64 66 63 55 55 54 44 45 44 40 39 39 40 42 43 42 41 38 36 35 35 34 33 34 36 36 35 37 39 40 40 42 43 42 42 44 44 45 44 44 43 43 38 35 41 50
72 71 71 69 65 62 55 56 54 46 44 44 42 38 37 38 39 41 43 42 39 36 34 34 33 34 35 35 36 36 37 36 37 38 40 39 39 40 41 42 42 41 41 42 43 43 42 46 48
69 67 68 68 65 61 57 52 54 47 48 45 41 39 40 41 40 39 39 40 40 38 37 38 38 38 38 38 38 38 37 37 38 38 37 37 38 38 38 38 40 41 42 41 44 46 44 46 53
65 63 66 66 60 55 59 55 51 50 48 47 47 45 42 38 36 37 36 37 39 40 42 40 40 40 40 42 43 42 40 40 39 40 40 40 40 40 39 41 41 41 43 43 39 47 49 52 50
46 47 60 60 55 45 57 55 50 56 47 45 46 46 43 40 37 36 36 40 43 42 43 41 40 42 43 45 46 46 45 45 45 43 43 42 42 43 43 42 42 41 43 43 44 43 44 43 39
52 46 43 45 43 62 59 57 53 57 50 46 43 45 45 40 34 36 38 39 40 40 40 41 41 42 44 46 47 47 47 48 46 44 42 43 44 43 43 42 42 40 37 36 36 35 32 33 35
49 53 54 54 66 65 55 60 53 59 53 49 45 44 41 37 36 37 38 40 41 39 38 36 38 39 40 43 44 44 43 45 46 45 46 43 41 39 38 35 32 32 32 31 32 32 33 35 39
44 49 45 31 42 36 50 53 62 56 53 50 48 45 42 41 39 37 37 35 36 35 33 34 35 37 39 41 42 43 44 46 45 45 44 43 39 36 33 32 30 28 28 31 33 37 40 42 45
39 35 43 32 39 38 40 49 47 53 48 46 46 42 40 37 34 32 32 34 35 32 32 32 34 37 39 40 40 39 40 39 38 40 41 40 36 30 27 25 26 29 32 35 38 41 44 46 48
40 37 47 36 32 38 35 30 42 44 43 43 37 39 35 34 32 32 34 33 31 30 30 31 34 35 35 35 38 37 36 36 37 42 40 39 34 30 29 29 33 35 35 37 40 42 43 43 43
34 44 43 36 35 34 27 37 47 43 41 36 35 35 35 34 34 34 31 28 28 25 26 27 29 29 29 29 27 27 29 31 37 44 41 47 33 27 29 32 36 36 36 38 40 43 45 47 48
Wind_Direction
242 241 240 236 237 235 224 221 221 225 229 234 236 231 229 238 227 214 228 234 224 224 236 243 247 241 246 277 296 291 276 288 273 269 276 281 280 280 280 278 276 273 268 271 268 262 256 264 290
242 241 241 241 236 234 225 226 222 221 230 236 239 242 235 235 241 240 243 245 254 251 250 247 243 234 233 237 248 278 291 275 293 304 299 288 286 284 280 272 267 269 273 273 266 269 267 275 284
236 241 240 241 238 233 226 230 227 229 232 236 240 244 249 238 240 247 243 236 236 249 265 272 283 263 252 250 274 257 289 290 283 289 289 288 288 286 281 277 276 272 266 267 267 274 275 282 299
229 233 241 243 243 238 231 231 232 233 235 238 240 241 247 251 244 243 245 245 243 252 260 273 287 291 287 290 294 287 304 290 280 277 285 289 287 283 286 283 278 278 276 266 269 277 287 300 311
232 230 233 239 242 239 233 232 230 233 236 238 240 241 244 248 251 246 244 244 251 259 265 271 280 277 287 300 307 298 292 304 302 288 288 290 287 285 290 292 289 282 280 282 282 291 296 302 305
233 231 232 234 235 237 232 232 233 233 236 239 241 241 243 247 250 252 248 248 250 255 258 266 268 268 280 314 313 296 284 288 294 298 286 273 265 265 274 279 291 294 290 288 292 295 298 302 305
234 234 232 234 233 231 231 232 231 231 233 238 239 239 242 245 246 251 254 255 253 255 259 262 264 268 275 297 310 296 277 270 270 268 269 270 265 262 264 257 269 278 283 281 282 287 292 296 300
237 236 235 233 229 227 233 233 231 232 232 233 237 237 240 241 245 249 253 255 257 255 257 257 256 261 272 284 290 289 280 270 264 260 258 260 263 262 262 262 263 265 272 276 277 280 285 287 291
237 236 234 237 233 232 234 235 235 232 233 234 237 235 238 241 243 247 251 254 257 257 256 258 259 263 269 272 283 280 272 270 282 274 262 252 253 255 260 264 267 266 268 273 273 274 275 277 282
243 238 237 241 237 233 236 232 234 233 232 234 235 238 237 236 238 242 245 248 252 257 258 257 257 259 264 271 276 275 275 278 277 254 254 260 260 271 278 275 269 261 259 261 262 262 264 267 272
243 243 242 241 236 228 228 229 230 234 233 234 234 235 238 237 237 237 241 245 247 250 254 257 259 263 267 269 271 273 277 274 261 253 255 261 269 275 274 274 273 269 265 261 263 263 262 265 267
247 244 244 240 234 232 227 227 226 230 233 234 235 234 235 236 238 239 240 241 243 248 251 254 259 263 266 268 272 274 272 269 262 262 268 271 273 272 267 266 270 270 269 268 265 267 267 267 266
244 244 243 243 236 230 229 226 229 228 231 234 235 238 237 234 237 240 241 244 245 245 247 252 258 264 267 266 266 269 270 267 266 267 268 268 269 268 263 262 264 268 271 270 270 268 267 267 269
246 243 242 241 239 235 231 228 229 229 229 234 236 238 239 238 236 238 243 244 247 248 251 254 259 261 263 264 267 275 277 266 283 274 271 269 266 265 262 261 263 268 270 274 271 267 267 269 273
246 246 244 239 242 240 235 231 228 231 234 236 237 239 240 241 237 236 238 242 243 247 252 254 256 261 265 265 269 274 274 280 282 274 273 269 266 262 264 262 265 269 272 273 266 266 269 274 277
244 244 244 243 240 241 239 228 231 231 233 234 241 241 244 246 246 238 235 239 242 245 248 257 259 260 262 266 269 270 272 275 269 266 268 266 266 262 262 262 265 267 273 272 272 267 273 278 280
241 245 243 244 243 243 240 235 233 232 235 237 238 243 244 246 246 245 242 239 243 248 250 254 258 260 260 264 264 268 267 270 266 262 265 266 265 264 265 263 264 268 269 268 270 271 273 280 281
243 240 241 240 241 236 237 239 237 239 234 240 237 241 243 245 246 247 244 238 237 240 246 250 256 261 262 263 260 260 263 263 263 262 262 264 265 266 265 267 270 271 270 269 271 278 280 279 280
237 237 237 239 238 241 239 240 238 234 235 233 235 234 242 244 247 250 250 247 243 241 244 249 251 252 254 256 256 257 257 256 259 261 261 262 264 266 268 269 272 274 276 276 276 279 278 282 281
233 235 238 236 239 239 239 239 241 236 231 232 232 229 233 238 241 244 248 249 249 249 247 248 249 248 249 251 253 253 253 255 259 261 261 263 265 268 270 272 274 276 278 276 274 278 273 271 281
230 231 233 235 236 236 238 239 239 236 232 231 234 232 231 233 235 237 242 248 251 253 257 259 259 257 255 253 257 261 264 266 267 269 271 272 272 271 273 275 277 277 274 275 274 275 274 273 278
228 228 233 235 237 235 234 236 238 232 231 227 229 231 231 235 238 241 243 247 252 250 249 251 255 258 262 266 267 266 266 268 270 270 271 273 271 273 273 274 274 274 276 276 277 275 271 276 266
224 224 226 232 232 237 234 229 234 232 232 230 227 229 231 234 238 242 243 244 247 248 249 251 255 258 262 265 266 266 267 268 267 270 271 269 271 271 271 273 272 273 273 272 262 270 273 279 282
217 218 224 225 226 229 226 227 228 235 233 231 231 232 232 235 236 240 243 243 243 245 250 252 257 260 264 268 272 274 276 278 278 276 273 271 271 273 274 273 273 271 269 268 269 276 279 279 278
212 208 211 215 210 222 225 226 222 230 226 227 228 229 230 229 230 235 237 243 246 246 249 253 257 262 266 269 272 277 279 278 279 278 275 273 275 275 277 272 268 266 271 276 275 273 276 278 279
208 209 211 214 217 217 219 220 221 228 226 227 228 229 227 224 227 230 231 235 238 241 245 251 258 262 265 269 272 277 278 278 278 282 283 280 279 270 267 264 265 266 267 267 270 272 274 276 278
203 206 205 209 218 206 219 214 218 222 224 221 222 222 221 223 223 226 227 233 239 241 244 248 254 259 263 268 272 275 279 281 281 281 276 273 265 257 252 255 261 263 268 269 271 273 274 278 280
205 201 173 190 202 199 217 218 222 218 218 216 218 218 218 219 219 220 222 225 229 234 240 246 251 255 261 267 274 278 278 276 276 275 271 266 256 252 251 258 265 266 265 268 272 276 280 283 286
188 184 182 186 193 195 204 204 210 218 219 217 211 212 208 209 212 216 219 222 227 232 237 242 247 253 261 268 272 274 273 272 265 263 260 253 248 247 252 253 260 264 270 275 280 282 285 287 289
195 182 173 179 185 188 200 206 208 211 207 205 200 199 200 202 207 212 216 222 228 233 232 236 243 251 261 266 268 272 279 273 270 262 258 257 258 246 252 259 264 268 273 279 283 285 287 288 288
Height
5871 5874 5876 5878 5883 5884 5889 5892 5892 5894 5894 5896 5899 5903 5906 5907 5909 5910 5910 5911 5911 5912 5914 5914 5915 5916 5916 5916 5917 5917 5918 5918 5918 5919 5919 5919 5919 5919 5919 5918 5917 5917 5916 5915 5914 5914 5914 5914 5915
5864 5867 5870 5871 5873 5878 5887 5890 5890 5888 5887 5892 5895 5898 5901 5902 5904 5906 5909 5911 5912 5913 5913 5914 5914 5914 5914 5915 5916 5917 5917 5917 5917 5918 5918 5918 5918 5917 5917 5917 5916 5916 5915 5915 5915 5915 5915 5914 5914
5858 5859 5862 5861 5865 5871 5885 5886 5884 5883 5885 5887 5890 5893 5895 5898 5901 5902 5905 5907 5909 5911 5912 5913 5914 5914 5914 5915 5915 5915 5916 5916 5916 5916 5915 5915 5916 5916 5916 5915 5915 5914 5914 5914 5914 5914 5914 5914 5914
5849 5852 5852 5853 5858 5872 5877 5878 5879 5880 5881 5882 5885 5887 5890 5892 5896 5899 5901 5903 5906 5908 5909 5910 5911 5912 5912 5913 5914 5914 5914 5914 5914 5914 5914 5914 5914 5914 5915 5914 5914 5913 5914 5913 5913 5913 5913 5913 5913
5839 5842 5843 5846 5853 5864 5869 5870 5872 5873 5873 5876 5878 5881 5885 5887 5890 5893 5896 5898 5901 5903 5905 5907 5908 5908 5909 5910 5911 5912 5912 5913 5913 5912 5912 5913 5913 5913 5914 5913 5913 5912 5912 5913 5913 5912 5912 5911 5911
5829 5833 5835 5839 5848 5856 5860 5863 5864 5867 5867 5867 5873 5875 5878 5882 5883 5886 5890 5893 5896 5899 5901 5903 5904 5905 5906 5907 5908 5909 5910 5910 5910 5910 5910 5910 5911 5911 5912 5911 5911 5911 5911 5911 5911 5911 5910 5910 5910
5822 5824 5828 5833 5840 5846 5850 5852 5855 5860 5860 5859 5865 5869 5870 5872 5876 5879 5883 5887 5890 5894 5896 5898 5900 5901 5902 5904 5905 5906 5906 5907 5907 5907 5907 5907 5908 5908 5908 5909 5909 5909 5909 5908 5908 5908 5908 5907 5906
5814 5815 5818 5824 5832 5840 5839 5844 5848 5849 5853 5854 5851 5862 5866 5864 5869 5873 5877 5881 5885 5888 5891 5894 5896 5897 5899 5900 5902 5902 5903 5903 5903 5903 5904 5904 5905 5905 5905 5904 5904 5904 5904 5904 5904 5904 5904 5903 5902
5803 5805 5809 5815 5826 5832 5830 5836 5836 5840 5842 5845 5846 5853 5849 5862 5863 5866 5869 5874 5878 5883 5886 5889 5890 5893 5895 5897 5898 5899 5898 5898 5899 5900 5899 5899 5900 5900 5900 5900 5900 5899 5899 5900 5900 5899 5898 5898 5897
5795 5798 5805 5808 5813 5821 5822 5824 5824 5828 5832 5834 5837 5839 5849 5853 5856 5859 5863 5867 5871 5875 5879 5882 5885 5887 5890 5892 5893 5894 5894 5894 5895 5895 5895 5895 5896 5895 5895 5894 5893 5894 5894 5894 5893 5892 5892 5891 5890
5789 5792 5797 5800 5805 5808 5809 5812 5814 5817 5821 5826 5830 5833 5836 5843 5848 5852 5856 5861 5865 5868 5871 5874 5876 5881 5884 5885 5887 5887 5887 5888 5889 5889 5890 5889 5889 5889 5888 5888 5888 5888 5887 5886 5887 5886 5885 5884 5883
5778 5781 5785 5789 5794 5798 5800 5800 5804 5806 5813 5814 5818 5821 5829 5833 5839 5843 5848 5854 5860 5863 5865 5867 5870 5875 5879 5881 5881 5881 5880 5881 5881 5883 5884 5883 5882 5882 5881 5882 5882 5881 5880 5879 5878 5878 5878 5877 5875
5768 5772 5775 5780 5785 5787 5788 5792 5795 5798 5801 5804 5809 5813 5820 5827 5832 5837 5840 5844 5849 5855 5860 5862 5865 5870 5874 5875 5876 5875 5874 5874 5874 5876 5876 5875 5875 5874 5874 5874 5873 5872 5871 5870 5870 5869 5869 5868 5867
5756 5761 5765 5771 5775 5778 5781 5784 5787 5791 5793 5796 5801 5806 5811 5819 5825 5830 5834 5839 5843 5845 5851 5856 5859 5863 5866 5868 5869 5869 5867 5867 5866 5867 5868 5867 5867 5866 5866 5866 5865 5863 5863 5862 5861 5860 5860 5859 5858
5744 5749 5755 5761 5765 5770 5773 5777 5781 5783 5786 5790 5794 5799 5803 5810 5817 5824 5828 5832 5836 5840 5843 5846 5850 5855 5859 5862 5863 5862 5861 5861 5860 5859 5860 5859 5859 5858 5858 5857 5857 5856 5856 5854 5853 5852 5852 5850 5848
5732 5735 5743 5750 5754 5759 5763 5772 5771 5775 5778 5785 5786 5792 5797 5803 5810 5817 5820 5823 5829 5833 5837 5840 5844 5847 5851 5853 5855 5856 5855 5853 5853 5853 5852 5852 5851 5850 5849 5848 5848 5848 5848 5847 5845 5845 5844 5842 5841
5719 5728 5732 5736 5741 5748 5754 5760 5764 5767 5772 5776 5781 5784 5790 5796 5802 5808 5814 5818 5822 5826 5830 5833 5836 5840 5843 5845 5846 5848 5848 5846 5846 5847 5846 5845 5844 5843 5842 5841 5841 5841 5840 5838 5838 5837 5836 5834 5831
5708 5710 5715 5721 5727 5735 5743 5748 5757 5758 5765 5768 5775 5778 5783 5787 5795 5800 5806 5810 5814 5817 5820 5825 5829 5832 5835 5837 5838 5839 5839 5839 5839 5839 5838 5838 5836 5835 5834 5834 5834 5833 5832 5831 5830 5830 5828 5826 5823
5683 5692 5702 5706 5715 5722 5733 5735 5744 5750 5756 5761 5767 5773 5776 5781 5787 5791 5796 5802 5807 5810 5814 5817 5821 5824 5827 5828 5829 5830 5831 5831 5831 5830 5830 5829 5828 5827 5826 5826 5826 5825 5825 5824 5822 5821 5818 5817 5815
5670 5679 5688 5695 5700 5709 5717 5725 5731 5741 5748 5753 5759 5766 5770 5775 5780 5784 5789 5793 5798 5803 5807 5811 5813 5816 5819 5821 5822 5823 5823 5822 5822 5822 5821 5821 5821 5821 5819 5818 5817 5817 5816 5814 5813 5813 5806 5809 5806
5652 5664 5672 5680 5686 5695 5704 5711 5721 5733 5739 5746 5753 5760 5765 5768 5771 5776 5780 5786 5790 5795 5798 5801 5805 5809 5811 5813 5814 5815 5814 5815 5815 5814 5814 5814 5813 5812 5811 5810 5809 5808 5806 5806 5804 5804 5802 5799 5797
5635 5653 5657 5665 5674 5685 5691 5704 5709 5722 5729 5738 5745 5751 5758 5761 5764 5768 5773 5779 5783 5787 5790 5794 5797 5799 5801 5803 5805 5806 5806 5807 5807 5807 5806 5806 5805 5803 5801 5801 5800 5798 5797 5796 5795 5794 5792 5789 5785
5624 5630 5642 5650 5663 5670 5678 5691 5702 5711 5719 5729 5737 5743 5749 5755 5758 5762 5767 5772 5776 5778 5780 5783 5786 5790 5792 5794 5794 5795 5797 5797 5798 5798 5798 5797 5795 5794 5792 5791 5790 5790 5788 5786 5785 5783 5781 5778 5776
5608 5615 5626 5637 5649 5655 5672 5685 5691 5701 5712 5719 5727 5736 5742 5747 5751 5755 5759 5763 5766 5769 5772 5775 5779 5781 5783 5783 5785 5786 5787 5787 5788 5788 5788 5787 5786 5785 5783 5782 5780 5779 5777 5775 5774 5773 5773 5771 5769
5591 5604 5614 5623 5633 5654 5664 5670 5688 5689 5700 5710 5719 5726 5732 5737 5743 5748 5752 5756 5759 5762 5766 5768 5771 5773 5775 5776 5776 5777 5779 5777 5777 5778 5779 5777 5776 5775 5774 5773 5771 5768 5767 5767 5766 5765 5763 5762 5760
5580 5593 5602 5612 5626 5646 5649 5658 5671 5679 5692 5700 5710 5718 5724 5729 5734 5740 5745 5748 5751 5755 5759 5762 5764 5765 5767 5767 5769 5770 5770 5768 5768 5769 5768 5768 5768 5766 5764 5762 5762 5761 5760 5760 5759 5758 5757 5755 5753
5573 5583 5605 5620 5628 5641 5642 5651 5659 5668 5679 5690 5699 5707 5714 5720 5726 5732 5737 5743 5747 5750 5753 5755 5757 5759 5760 5760 5762 5762 5763 5762 5761 5760 5759 5758 5758 5757 5756 5755 5755 5754 5755 5754 5753 5751 5749 5746 5743
5571 5589 5596 5608 5620 5631 5639 5646 5655 5663 5671 5681 5690 5700 5707 5714 5720 5727 5732 5736 5740 5744 5747 5749 5751 5753 5754 5755 5756 5757 5756 5756 5754 5752 5751 5751 5750 5750 5751 5751 5751 5750 5748 5746 5744 5742 5739 5736 5732
5567 5575 5590 5606 5616 5626 5636 5645 5647 5658 5667 5676 5685 5693 5701 5708 5714 5720 5725 5729 5734 5737 5740 5743 5746 5748 5749 5750 5750 5750 5749 5749 5748 5746 5744 5745 5744 5745 5745 5746 5744 5742 5740 5738 5736 5733 5728 5725 5721
5569 5576 5587 5598 5609 5624 5632 5636 5640 5649 5660 5671 5679 5687 5695 5702 5708 5713 5719 5723 5727 5732 5735 5739 5741 5743 5744 5745 5744 5743 5742 5741 5741 5740 5740 5738 5739 5738 5738 5737 5736 5735 5732 5729 5726 5722 5718 5714 5710